Temperature
18 18 18 18 18 18 18 18 18 18 18 18 18 18 18 18 18 18 18 18 18 18 18 18 18 18 18 18 18 17 17 17 17 17 17 17 17 17 17 17 16 16 16
18 18 18 18 18 18 18 18 18 18 18 18 18 18 18 18 18 18 18 18 18 18 18 18 18 18 18 18 18 17 17 17 17 17 17 17 17 17 17 17 16 16 16
18 18 18 18 18 18 18 18 18 18 18 18 18 18 18 18 18 18 18 18 18 18 18 18 18 18 18 18 18 18 17 17 17 17 17 17 17 17 17 16 16 16 16
19 18 18 18 18 18 18 18 18 18 18 18 18 18 18 18 18 18 18 18 18 18 18 18 18 18 18 18 18 18 17 17 17 17 17 17 17 17 17 16 16 16 16
19 19 19 18 18 18 18 18 18 18 18 18 18 18 18 18 18 18 18 18 18 18 18 18 18 18 18 18 18 18 18 17 17 17 17 17 17 17 17 16 16 16 16
19 19 18 18 18 18 18 18 18 18 18 18 18 18 18 18 18 18 18 18 18 18 18 18 18 18 18 18 18 18 18 17 17 17 17 17 17 17 17 17 16 16 16
19 19 19 18 18 18 18 18 18 18 18 18 18 18 18 18 18 18 18 18 18 18 18 18 18 18 18 18 18 18 18 17 17 17 17 17 17 17 17 17 16 16 16
19 19 19 19 18 18 18 18 18 18 18 18 18 18 18 18 19 19 19 19 18 18 18 18 18 18 18 18 18 18 17 17 17 17 17 17 17 17 17 17 16 16 16
19 19 19 19 19 19 18 18 18 18 18 18 18 18 18 18 18 19 19 19 19 18 18 18 18 18 18 18 18 18 18 17 17 17 17 17 17 17 17 16 16 16 16
19 19 19 19 19 19 19 18 18 18 18 18 18 18 18 18 18 18 18 18 18 18 18 18 18 18 18 18 18 18 18 17 17 17 17 17 17 17 17 17 16 16 16
19 19 19 19 19 19 19 19 18 18 18 18 18 18 18 18 18 18 18 18 18 18 18 18 18 18 18 18 18 18 18 18 17 17 17 17 17 17 17 17 16 16 16
19 19 19 19 19 19 19 19 19 18 18 18 18 18 18 18 18 18 18 18 18 18 18 18 18 18 18 18 18 18 18 17 17 17 17 17 17 17 17 16 16 16 16
19 19 19 19 19 19 19 19 19 18 18 18 18 18 18 18 18 18 18 18 18 18 18 18 18 18 18 18 18 18 18 17 17 17 17 17 17 17 16 16 16 16 16
19 19 19 19 19 19 19 19 19 18 18 18 18 18 18 18 18 18 18 18 17 17 18 18 18 18 18 18 18 17 17 17 17 17 17 17 17 17 16 16 16 16 16
19 19 19 19 19 19 19 19 19 18 18 18 18 18 18 18 18 18 18 18 17 17 17 18 18 18 17 17 17 17 17 17 17 17 17 17 16 16 16 16 16 16 16
19 19 19 19 19 19 19 18 18 18 18 18 18 18 18 18 18 18 18 18 17 17 17 17 17 17 17 17 17 17 17 17 17 16 16 16 16 16 16 16 16 16 15
19 19 19 19 19 19 18 18 18 18 18 18 18 18 18 18 18 18 18 17 17 17 17 17 17 17 17 17 17 17 17 17 17 16 16 16 16 16 16 16 16 15 15
19 19 19 19 19 18 18 18 18 18 18 18 18 18 17 17 17 17 17 17 17 17 17 17 17 17 17 17 16 16 16 16 16 16 16 16 16 15 15 15 15 15 15
19 19 19 19 18 18 18 18 18 18 18 18 18 17 17 17 17 17 17 17 17 17 17 17 17 17 17 16 16 16 16 16 16 16 16 15 15 15 15 15 15 15 15
19 19 18 18 18 18 18 18 18 18 18 18 17 17 17 17 17 17 17 17 17 17 17 16 16 16 16 16 16 16 16 16 16 16 15 15 15 15 15 15 15 14 14
19 18 18 18 18 18 17 17 17 17 17 17 17 17 17 17 17 17 16 16 16 16 16 16 16 16 16 16 16 16 16 15 15 15 15 15 15 15 15 15 14 14 14
18 18 18 18 18 18 17 17 17 17 17 17 17 17 17 16 16 16 16 16 16 16 16 16 16 16 16 16 15 15 15 15 15 15 15 15 15 15 15 14 14 14 14
18 18 17 17 17 17 17 17 17 17 17 17 17 17 16 16 16 16 16 16 16 16 16 16 15 16 16 16 15 15 15 15 15 15 15 15 15 15 14 14 14 14 14
17 17 17 17 17 17 17 17 16 16 16 16 16 16 16 16 16 16 16 16 15 15 15 15 15 15 15 15 15 15 15 14 14 14 14 14 14 14 14 14 14 14 13
17 16 16 16 16 16 17 16 16 16 16 15 15 15 15 15 15 15 15 15 15 15 15 15 15 15 15 14 14 14 14 14 14 14 14 14 14 14 14 14 14 13 13
16 16 16 16 16 16 16 16 16 16 15 15 15 15 15 15 15 15 14 14 14 14 14 14 14 14 14 14 14 14 14 13 13 13 13 13 13 13 13 13 13 13 13
Wind_Speed
5 5 5 6 6 6 5 4 4 4 4 4 5 5 4 6 7 8 10 14 16 16 16 16 15 15 14 14 14 14 13 13 13 13 13 13 13 12 12 12 11 11 11
6 5 5 5 5 6 6 6 5 4 3 3 3 4 4 6 7 8 10 13 15 16 16 16 16 16 15 15 15 15 15 15 14 14 14 14 14 13 13 13 13 12 12
9 7 5 5 5 8 7 5 3 2 2 2 2 3 3 5 7 8 9 10 12 15 17 17 16 16 16 15 15 15 16 16 16 15 15 15 15 14 14 14 14 14 13
11 7 5 5 6 6 5 4 3 2 2 2 2 2 2 3 5 7 8 9 10 11 14 17 17 17 17 16 17 17 16 16 16 17 16 16 16 16 16 16 15 15 15
12 8 5 5 7 5 4 4 3 3 3 3 2 2 2 3 3 5 6 9 10 11 12 14 17 18 18 17 17 17 17 17 17 18 17 17 17 17 17 17 16 15 15
10 8 5 6 6 5 4 3 3 3 3 3 2 2 2 3 3 4 6 7 9 12 12 12 13 15 18 18 17 18 18 18 18 18 18 18 18 17 17 17 17 16 16
10 7 5 5 5 5 5 5 3 3 3 2 1 1 2 2 3 4 4 4 6 9 11 13 12 12 12 16 18 18 18 18 18 18 18 18 18 18 18 18 17 17 17
9 8 6 6 5 4 4 4 4 3 2 3 3 1 1 3 3 3 2 4 5 5 6 11 12 12 11 11 13 17 18 19 18 17 17 17 18 19 19 18 17 17 16
8 7 7 6 6 5 5 5 5 5 3 2 3 4 3 3 2 3 2 3 3 3 4 5 9 11 12 12 12 14 16 17 17 16 16 16 17 18 19 18 17 17 17
7 7 7 7 6 5 5 5 5 4 5 3 2 2 3 4 3 2 3 2 3 3 4 4 5 8 10 11 12 13 15 15 16 15 15 15 15 16 17 18 18 17 17
5 6 7 6 6 5 6 5 4 4 4 4 3 2 2 2 2 3 3 3 2 3 3 4 4 5 8 10 11 12 14 15 15 15 15 15 14 14 14 15 15 16 16
4 5 6 6 6 5 6 6 5 5 5 4 4 3 3 3 3 3 4 3 2 3 2 2 3 3 6 8 10 11 12 13 13 13 13 13 13 12 12 12 13 13 14
4 5 6 5 5 5 5 5 6 5 5 4 4 4 3 4 3 3 3 2 2 2 1 2 3 4 4 6 7 9 10 11 12 11 11 11 10 10 10 11 11 11 11
6 6 6 6 6 5 5 5 5 5 5 5 5 4 3 4 3 4 4 3 2 2 2 3 1 2 3 4 6 6 6 9 10 10 10 10 9 9 9 9 9 9 9
6 6 7 6 6 6 5 5 4 5 5 5 5 5 4 3 3 3 3 4 4 3 3 3 2 2 3 5 6 6 6 7 8 9 10 9 9 9 8 8 7 8 8
6 6 6 6 6 6 5 5 4 5 5 5 4 4 4 4 3 3 3 3 4 4 4 3 4 3 2 3 6 6 6 7 7 8 9 9 9 8 8 8 8 8 8
6 6 7 7 7 6 6 5 5 5 5 5 4 5 5 4 3 3 2 2 3 4 5 4 2 2 2 2 2 4 5 6 6 8 9 9 9 9 8 8 7 7 7
6 6 6 6 7 7 6 6 7 6 6 6 6 5 5 4 4 4 3 3 4 4 4 5 2 1 3 3 3 2 3 4 5 7 9 10 9 9 9 9 8 8 7
5 5 5 6 6 6 7 6 6 6 7 7 7 6 6 5 5 4 4 4 4 4 3 4 3 2 2 2 2 1 2 2 3 5 7 8 9 9 9 9 9 8 8
5 4 4 5 5 5 5 6 5 6 6 6 6 6 6 7 6 6 5 4 4 3 3 3 3 2 2 2 2 2 2 2 3 3 4 6 7 8 9 9 9 9 9
5 4 3 3 3 4 5 5 5 5 5 5 4 5 6 6 7 6 5 5 4 4 3 3 3 2 2 2 3 3 3 3 3 2 2 3 4 4 6 8 9 10 10
4 3 3 3 3 4 4 6 6 5 4 5 4 4 4 4 5 6 6 6 6 6 5 4 4 4 5 4 4 4 3 2 3 3 3 4 3 4 5 7 9 10 10
3 3 3 3 4 4 5 5 7 5 4 4 5 4 3 3 3 3 4 4 5 6 8 7 6 7 6 6 5 5 4 4 5 4 3 4 3 5 5 7 9 10 10
3 3 3 3 4 4 5 6 6 5 3 4 4 5 4 3 3 3 3 2 3 4 5 5 6 6 6 6 6 6 6 4 3 2 4 4 3 4 4 5 8 9 10
3 3 3 3 3 3 4 5 5 4 3 4 4 4 4 4 4 4 3 3 2 3 4 3 4 5 6 6 5 3 3 2 3 3 3 3 3 2 2 3 6 9 10
3 3 3 3 3 3 3 5 6 3 3 3 2 2 4 4 4 4 4 4 4 5 3 3 3 3 3 4 6 6 6 5 3 3 4 3 3 2 2 3 3 4 6
Wind_Direction
155 157 163 171 176 179 183 190 202 204 210 213 217 211 204 198 192 191 197 199 198 200 202 201 199 200 200 201 203 203 204 206 205 203 203 205 207 208 206 205 203 204 204
159 157 159 166 180 189 194 196 197 197 205 203 216 210 201 196 196 196 199 202 204 205 205 205 204 204 205 207 208 209 210 212 211 210 210 211 212 211 209 212 213 213 212
172 166 165 175 186 188 188 191 194 190 208 208 224 218 200 202 197 197 199 200 205 209 209 209 210 211 213 214 215 216 217 217 216 214 214 214 213 214 215 217 219 219 218
177 169 170 182 191 182 176 173 179 181 209 214 229 240 220 210 201 201 202 203 202 208 213 215 216 217 218 219 221 220 220 220 219 218 217 217 218 218 219 222 224 223 223
179 173 174 181 184 176 181 189 176 176 194 209 225 234 231 222 212 209 203 204 205 209 212 219 221 222 223 224 225 223 221 221 222 222 221 222 223 224 225 225 225 224 224
177 174 175 178 177 175 187 187 176 176 188 194 215 240 251 242 222 213 213 211 210 213 215 218 221 226 227 226 226 226 225 225 224 225 224 225 225 225 224 224 224 226 225
176 174 178 178 178 182 190 183 176 175 196 175 119 330 323 285 248 230 217 213 216 217 213 216 218 219 225 229 229 227 228 229 227 227 225 224 225 225 223 224 226 227 228
177 181 178 182 180 178 182 182 172 171 199 173 156 132 336 328 310 261 235 219 225 216 212 215 214 213 220 226 230 231 233 231 228 227 226 226 226 225 224 226 226 226 228
185 186 184 181 180 177 185 192 184 175 190 203 175 159 170 227 280 305 271 243 231 221 220 211 205 209 216 221 226 230 231 229 228 230 230 230 229 228 226 225 224 227 228
184 188 182 181 181 181 187 197 187 178 174 196 212 206 191 176 181 284 306 279 252 230 221 219 208 208 213 215 218 220 222 225 228 229 232 233 232 231 229 227 227 228 229
187 188 184 183 187 190 193 197 184 183 183 186 196 200 204 201 187 188 255 287 296 263 231 217 218 212 214 216 215 216 217 221 225 227 230 232 232 233 231 229 231 232 232
192 192 186 187 192 191 193 196 191 189 191 188 194 193 187 190 204 196 223 247 262 275 255 223 222 221 214 211 216 215 211 211 214 218 224 227 228 231 229 228 232 235 235
197 203 195 192 193 194 192 189 190 195 193 191 198 206 206 213 194 178 186 222 248 274 274 249 228 219 209 198 207 207 207 206 209 214 218 220 223 223 225 227 230 234 236
199 196 194 194 194 193 195 188 191 197 196 201 209 206 213 227 208 192 185 183 226 280 273 256 255 213 197 191 201 201 211 212 211 213 215 215 215 216 218 220 224 229 234
195 191 194 196 197 197 196 189 200 204 198 205 213 211 216 228 223 211 196 182 182 222 259 250 242 230 199 193 195 197 208 210 211 215 215 212 209 208 209 213 218 225 224
196 189 196 196 196 197 199 196 205 208 203 214 212 211 219 222 223 214 206 202 191 195 229 240 231 224 204 205 207 201 203 205 212 212 212 208 206 205 203 208 214 217 213
194 199 202 199 199 200 197 194 206 203 207 220 224 218 228 220 218 223 212 203 206 197 223 253 236 221 195 200 194 201 206 202 210 212 209 205 205 203 199 202 204 205 206
204 204 201 195 198 200 200 199 206 207 208 218 225 224 235 228 221 226 215 220 221 211 206 234 245 226 214 202 198 201 203 204 204 209 207 208 210 208 207 207 207 209 209
205 206 201 200 204 205 203 207 208 209 210 215 215 217 224 213 221 222 220 226 227 226 209 209 237 225 222 196 174 200 212 221 208 211 209 215 217 215 212 211 212 213 212
194 204 206 208 211 210 206 210 213 214 215 217 216 215 214 211 216 217 222 226 222 215 209 210 231 228 222 210 166 194 230 239 229 202 201 212 217 219 217 217 218 219 218
192 194 199 208 211 212 219 214 220 220 215 220 220 218 219 214 210 212 219 217 210 210 209 212 225 222 217 192 211 209 213 226 242 212 205 215 204 211 221 224 224 225 222
188 174 187 202 208 224 221 212 211 215 207 208 217 227 228 220 218 217 219 214 205 204 208 211 219 219 224 215 210 203 199 202 249 223 197 230 203 220 220 221 224 222 220
181 177 195 206 222 228 211 204 209 204 204 207 213 219 224 226 210 226 228 226 229 223 210 205 214 224 222 215 200 207 211 211 226 217 182 232 217 228 226 227 224 221 222
177 201 212 230 234 231 208 200 202 202 209 219 215 206 202 208 209 194 201 220 244 248 234 223 222 230 227 215 201 207 212 221 242 229 178 219 228 231 234 225 221 219 222
192 205 187 195 216 235 207 199 200 197 212 228 224 210 196 203 210 183 178 205 248 269 260 241 234 233 225 214 196 178 188 192 243 246 206 202 224 232 239 239 230 224 223
184 187 177 186 199 227 226 211 201 193 206 222 228 210 195 192 197 180 187 201 233 257 267 269 263 264 247 235 213 201 200 206 224 244 219 194 206 188 251 251 231 224 224
Height
1532 1534 1536 1538 1540 1542 1544 1545 1547 1549 1551 1552 1553 1555 1555 1556 1556 1557 1557 1558 1558 1559 1560 1560 1561 1562 1562 1563 1564 1564 1565 1566 1567 1568 1568 1569 1570 1571 1571 1572 1573 1574 1574
1533 1535 1536 1538 1540 1542 1544 1546 1547 1549 1550 1552 1553 1554 1555 1555 1556 1556 1556 1557 1557 1558 1558 1559 1560 1560 1561 1561 1562 1563 1564 1564 1565 1566 1567 1568 1568 1569 1570 1571 1572 1572 1573
1534 1535 1537 1539 1541 1542 1544 1546 1547 1549 1550 1551 1552 1553 1554 1554 1555 1555 1555 1556 1556 1557 1557 1558 1558 1559 1559 1560 1561 1561 1562 1563 1563 1564 1565 1566 1567 1568 1568 1569 1570 1571 1571
1534 1536 1537 1539 1541 1542 1544 1545 1547 1548 1549 1550 1551 1552 1553 1553 1554 1554 1554 1555 1555 1555 1556 1556 1557 1557 1558 1558 1559 1559 1560 1561 1561 1562 1563 1564 1565 1566 1566 1567 1568 1568 1569
1534 1535 1537 1538 1540 1542 1543 1545 1546 1547 1548 1549 1550 1551 1551 1552 1552 1552 1553 1553 1553 1554 1554 1555 1555 1555 1556 1556 1557 1557 1558 1559 1559 1560 1561 1562 1562 1563 1564 1565 1565 1566 1566
1534 1535 1537 1538 1539 1541 1542 1544 1545 1546 1547 1548 1549 1550 1550 1550 1550 1550 1551 1551 1551 1552 1552 1553 1553 1553 1554 1554 1554 1555 1555 1556 1557 1557 1558 1559 1560 1561 1561 1562 1563 1563 1563
1533 1534 1535 1537 1538 1540 1541 1543 1544 1545 1546 1547 1548 1548 1548 1548 1548 1548 1549 1549 1549 1549 1550 1550 1550 1551 1551 1551 1552 1552 1553 1553 1554 1555 1555 1556 1557 1557 1558 1559 1559 1560 1561
1532 1533 1534 1536 1537 1538 1540 1541 1542 1543 1544 1545 1546 1546 1546 1547 1546 1546 1546 1546 1547 1547 1547 1547 1548 1548 1549 1549 1549 1550 1550 1550 1551 1551 1552 1553 1553 1554 1555 1555 1556 1556 1557
1530 1532 1533 1534 1535 1536 1537 1539 1540 1541 1542 1543 1544 1545 1545 1544 1544 1544 1544 1544 1544 1544 1545 1545 1545 1545 1546 1546 1546 1547 1547 1547 1547 1548 1548 1549 1550 1550 1551 1551 1552 1552 1553
1529 1530 1531 1532 1533 1534 1536 1537 1538 1539 1540 1540 1542 1542 1543 1543 1543 1542 1542 1542 1542 1542 1542 1542 1542 1542 1543 1543 1543 1543 1544 1544 1544 1545 1545 1546 1546 1546 1547 1547 1548 1548 1549
1527 1528 1530 1531 1532 1533 1534 1535 1535 1536 1537 1538 1539 1540 1540 1540 1541 1541 1539 1540 1540 1540 1539 1539 1539 1540 1540 1540 1540 1540 1541 1541 1541 1541 1541 1541 1542 1542 1543 1543 1544 1544 1545
1525 1526 1527 1528 1529 1530 1531 1532 1533 1534 1535 1535 1536 1537 1538 1538 1538 1538 1537 1537 1537 1537 1537 1537 1537 1537 1537 1537 1537 1537 1537 1538 1538 1538 1537 1538 1538 1538 1539 1539 1540 1540 1540
1523 1524 1525 1526 1527 1528 1529 1529 1530 1531 1532 1532 1533 1534 1534 1535 1535 1535 1535 1535 1535 1535 1535 1535 1534 1535 1535 1535 1535 1535 1535 1535 1535 1534 1534 1534 1535 1535 1535 1535 1536 1536 1536
1521 1522 1523 1524 1525 1526 1526 1527 1527 1528 1529 1529 1530 1531 1531 1532 1532 1532 1532 1533 1532 1532 1532 1532 1532 1532 1532 1532 1532 1532 1532 1532 1531 1531 1531 1531 1531 1531 1531 1531 1532 1532 1532
1519 1520 1521 1522 1522 1523 1524 1524 1524 1525 1526 1526 1527 1528 1528 1528 1529 1529 1529 1530 1530 1529 1528 1529 1529 1529 1529 1529 1529 1529 1529 1529 1528 1528 1528 1528 1528 1528 1527 1527 1528 1528 1528
1516 1517 1518 1518 1519 1520 1521 1521 1522 1522 1523 1523 1524 1524 1524 1525 1525 1526 1526 1526 1527 1527 1526 1525 1526 1526 1526 1526 1526 1526 1526 1526 1526 1525 1525 1525 1524 1524 1524 1524 1524 1524 1525
1512 1513 1514 1515 1515 1516 1517 1518 1519 1519 1520 1520 1520 1521 1521 1521 1521 1522 1522 1523 1523 1523 1523 1522 1523 1523 1523 1523 1523 1523 1523 1523 1523 1522 1522 1522 1522 1522 1521 1521 1521 1521 1522
1509 1510 1511 1511 1512 1513 1513 1514 1514 1515 1515 1516 1516 1517 1517 1517 1517 1518 1518 1519 1519 1519 1519 1519 1519 1520 1520 1520 1520 1521 1520 1520 1520 1520 1519 1519 1519 1519 1519 1518 1518 1518 1519
1505 1506 1507 1507 1508 1508 1508 1510 1510 1510 1511 1511 1512 1512 1513 1513 1513 1514 1514 1515 1515 1516 1516 1516 1515 1516 1516 1517 1517 1517 1517 1517 1517 1517 1517 1516 1516 1516 1516 1516 1515 1515 1516
1501 1502 1503 1504 1504 1504 1504 1505 1506 1506 1506 1507 1507 1508 1508 1508 1509 1510 1510 1510 1511 1512 1512 1512 1512 1512 1513 1513 1514 1513 1513 1514 1514 1514 1513 1513 1513 1513 1513 1512 1512 1512 1512
1496 1498 1499 1500 1500 1500 1500 1501 1502 1502 1502 1502 1502 1503 1504 1504 1504 1505 1506 1506 1507 1507 1507 1508 1508 1508 1509 1509 1509 1509 1509 1509 1510 1510 1510 1510 1509 1509 1509 1509 1509 1509 1509
1492 1493 1493 1494 1495 1495 1496 1497 1498 1498 1498 1498 1498 1499 1499 1499 1500 1501 1502 1503 1503 1503 1503 1503 1504 1504 1504 1505 1506 1506 1506 1506 1505 1506 1506 1506 1506 1505 1505 1505 1505 1505 1505
1487 1489 1490 1490 1490 1491 1491 1492 1493 1493 1493 1493 1494 1494 1494 1495 1495 1496 1497 1498 1498 1498 1499 1499 1499 1499 1500 1501 1502 1502 1502 1501 1501 1502 1502 1501 1501 1501 1502 1502 1502 1502 1501
1483 1485 1485 1485 1485 1485 1486 1486 1487 1488 1488 1489 1489 1489 1490 1490 1491 1491 1492 1492 1493 1493 1494 1494 1495 1495 1496 1497 1497 1498 1498 1498 1497 1498 1498 1497 1497 1497 1497 1498 1498 1498 1498
1480 1481 1481 1480 1480 1481 1481 1482 1483 1483 1483 1483 1484 1484 1485 1485 1486 1487 1487 1487 1488 1488 1489 1490 1490 1491 1491 1492 1492 1493 1493 1493 1492 1492 1493 1493 1493 1493 1493 1493 1493 1494 1494
1476 1477 1476 1477 1477 1477 1477 1477 1478 1478 1478 1478 1479 1479 1480 1481 1481 1482 1482 1482 1483 1483 1484 1484 1485 1486 1487 1487 1488 1488 1488 1488 1488 1487 1488 1489 1488 1489 1488 1488 1489 1489 1489